Temperature
22 22 21 21 20 20 20 19 19 19 18 18 18 18 18 18 18 18 18 18 18 18 18 17 17 17 17 17 17 17 17 17 17 17 17 17 17 17 17 17 17 17 17
21 21 21 21 20 20 20 19 19 19 19 18 18 18 18 18 18 18 18 18 18 18 18 18 17 17 17 17 17 17 17 17 17 17 17 17 17 17 17 17 17 17 17
22 21 21 21 20 20 20 19 19 19 19 18 18 17 17 17 17 18 18 18 18 18 18 18 18 17 17 17 17 17 17 17 17 17 17 17 17 17 17 17 17 17 17
22 22 21 21 21 20 20 19 19 19 18 18 18 17 17 17 18 18 18 18 18 18 17 17 17 17 17 17 17 17 17 17 17 17 17 17 17 17 17 17 17 17 17
22 22 21 21 21 20 20 19 19 19 18 18 18 18 18 18 18 18 18 18 17 17 17 17 17 17 17 17 17 17 17 17 17 17 17 17 17 17 17 17 17 17 17
22 22 21 21 20 20 19 19 19 18 18 18 18 17 17 18 17 17 17 17 17 17 17 17 17 17 17 17 17 17 17 17 17 17 17 17 17 17 17 17 17 17 17
22 22 21 20 20 20 19 19 18 18 18 18 18 17 18 17 17 17 17 17 17 17 17 17 17 17 17 17 17 17 17 17 17 17 17 17 17 17 17 17 17 17 17
22 22 21 21 20 20 19 19 19 18 18 18 18 17 17 17 17 17 17 17 17 17 17 17 17 17 17 17 17 17 17 17 17 17 17 17 17 17 17 17 17 17 16
22 22 21 21 20 20 19 19 19 18 18 18 18 17 17 17 17 17 17 17 17 17 17 17 17 17 17 17 17 17 17 17 17 17 17 17 17 17 17 17 17 17 17
22 22 21 21 20 20 19 19 19 18 18 18 18 17 17 17 17 17 17 17 17 17 17 17 17 17 17 17 17 17 17 17 17 17 17 17 17 17 17 17 17 17 17
22 22 21 21 20 20 19 19 19 18 18 18 17 17 17 17 17 17 17 17 17 17 17 17 17 17 17 17 17 17 17 17 17 17 17 17 17 17 17 17 16 16 16
22 22 22 21 20 20 19 19 19 18 18 18 18 17 17 17 17 17 17 17 17 17 17 17 17 17 17 17 17 16 16 16 16 16 16 16 16 16 16 16 16 16 16
22 22 21 21 20 20 19 19 19 18 18 18 18 18 17 17 17 17 17 17 17 17 16 16 16 16 16 16 16 16 16 16 16 16 16 16 16 16 16 16 16 16 16
22 22 21 21 20 20 19 19 19 19 18 18 18 18 17 17 17 17 17 17 17 16 16 16 16 16 16 16 16 16 16 16 16 15 15 15 15 15 15 15 15 15 15
21 22 22 21 20 20 19 19 19 19 18 18 18 18 17 17 17 17 16 16 16 16 16 16 16 16 16 16 16 16 16 15 15 15 15 15 15 15 15 15 15 15 14
22 22 22 21 21 20 20 19 19 18 18 18 18 17 17 17 17 16 16 16 16 16 16 16 15 15 16 15 15 15 15 15 15 15 15 15 14 14 14 14 14 14 14
22 22 22 22 21 21 20 19 19 19 18 18 18 17 17 17 16 16 16 16 16 16 15 15 15 15 15 15 15 15 15 15 14 14 14 14 14 14 14 14 13 13 13
22 22 22 22 21 21 20 19 19 18 18 18 18 17 17 17 16 16 16 16 16 15 15 15 15 15 15 15 15 14 14 14 14 14 14 14 14 13 13 13 13 12 12
23 22 22 22 21 20 20 19 19 18 18 18 17 17 17 16 16 16 16 15 15 15 15 15 15 15 14 14 14 14 14 14 13 13 13 13 13 13 12 12 12 12 11
22 22 22 21 20 20 19 19 19 18 18 17 17 16 16 16 16 15 15 15 15 15 15 15 14 14 14 14 13 13 13 13 13 13 12 12 12 11 11 11 11 11 10
21 21 21 20 20 19 19 19 18 18 17 17 16 16 16 16 15 15 15 15 15 14 14 14 14 13 13 13 13 13 13 13 12 12 12 11 11 11 10 10 10 10 9
20 20 20 20 19 19 18 18 18 17 17 16 16 16 15 15 15 15 14 14 14 14 14 14 13 13 13 12 12 12 12 12 12 11 11 10 10 10 9 9 9 9 8
19 19 19 19 18 18 18 18 17 17 16 16 15 15 14 14 14 14 14 14 14 13 13 13 13 12 12 12 12 11 11 11 11 10 10 10 9 9 8 8 8 8 8
18 18 18 18 17 17 17 17 17 16 15 15 15 14 14 14 14 14 13 13 13 13 13 12 12 12 11 11 11 11 10 10 10 9 9 9 8 8 8 7 7 7 7
17 17 17 17 16 16 16 16 15 15 15 14 14 14 13 13 13 13 13 13 12 12 12 12 12 11 11 11 11 10 10 10 9 9 8 8 8 7 7 7 7 6 6
16 16 16 16 16 15 15 15 14 14 14 13 13 13 13 13 12 12 12 12 12 11 11 11 11 11 10 10 10 9 9 9 8 8 8 8 7 7 7 7 6 6 6
Wind_Speed
5 6 8 9 9 9 10 10 10 9 8 6 5 5 5 4 4 5 8 9 10 10 10 6 5 6 4 5 5 3 2 1 2 2 1 1 1 1 2 4 4 6 7
5 6 8 9 10 11 10 10 11 10 9 8 6 4 4 3 4 4 6 9 10 10 10 7 5 5 4 5 5 3 3 2 2 3 2 1 2 1 1 2 4 5 5
9 8 8 8 9 10 12 12 11 10 10 8 5 3 2 2 2 4 4 6 10 10 9 9 7 6 5 5 6 5 5 3 2 2 3 3 3 1 1 1 2 3 3
7 7 8 8 9 9 9 8 9 9 9 9 8 8 7 6 6 5 5 4 7 9 10 9 9 7 5 6 6 5 4 4 3 2 1 2 3 2 0 1 0 1 1
8 8 7 8 7 7 7 7 7 7 8 9 10 9 7 6 4 4 5 5 4 7 9 9 8 7 6 6 6 6 5 4 4 4 2 2 1 1 2 1 0 1 1
8 7 5 5 5 6 6 6 7 7 7 8 8 9 9 7 6 6 6 5 4 4 6 7 7 7 6 6 6 6 7 5 5 4 3 3 3 3 3 2 2 1 1
8 8 7 7 7 6 6 6 7 6 6 7 8 8 8 8 8 7 7 6 4 4 6 6 6 6 6 7 6 6 6 6 6 5 4 4 3 3 3 3 2 1 0
8 9 8 8 7 7 7 7 7 5 5 6 6 6 6 6 5 6 6 6 5 5 6 6 7 7 7 7 6 5 6 5 6 7 5 4 4 4 4 4 4 2 1
8 8 8 8 7 7 7 7 7 5 5 6 5 4 5 5 6 6 5 5 4 4 5 6 6 6 6 6 6 5 6 6 6 5 5 4 3 4 4 4 5 5 4
8 8 7 7 7 6 5 5 6 5 5 5 5 5 5 5 5 5 5 5 5 4 5 6 6 6 6 6 6 5 5 6 5 4 5 4 3 3 3 4 4 4 4
8 8 7 7 7 6 5 5 5 5 4 5 5 5 4 4 5 5 4 4 4 5 5 6 6 6 6 6 6 6 6 6 5 4 5 4 3 3 2 3 3 3 3
7 7 7 7 6 6 5 5 5 5 5 5 5 5 4 4 4 4 3 3 3 4 5 5 5 5 5 6 6 6 6 6 6 5 5 4 3 3 2 3 3 3 4
8 7 7 7 7 7 6 6 5 5 5 5 5 4 4 4 4 3 3 3 3 3 3 4 5 5 5 5 6 6 6 6 5 5 6 5 5 4 3 4 4 4 5
9 8 7 7 7 6 6 6 5 5 5 5 5 4 4 4 3 3 3 3 3 3 3 4 4 4 4 5 5 5 5 5 4 4 4 4 5 5 6 5 5 6 7
9 9 9 7 7 6 6 6 5 5 5 6 5 4 4 3 3 3 3 3 3 3 3 3 3 3 3 4 5 5 6 6 5 4 4 4 6 7 6 6 7 7 7
10 10 9 8 9 9 8 7 6 5 5 6 5 4 4 4 4 3 3 3 2 2 3 3 3 2 2 4 7 7 6 6 6 5 4 4 5 8 9 9 9 9 8
10 10 10 9 9 8 8 8 6 6 5 5 5 4 5 4 3 4 4 3 3 3 3 3 3 3 4 6 6 7 6 6 5 5 5 5 6 8 8 11 12 10 9
9 10 9 8 6 6 6 6 6 6 6 5 5 4 5 5 4 4 4 3 3 3 3 3 4 4 4 6 8 9 6 5 5 5 6 7 6 7 10 10 10 9 8
7 7 8 8 7 7 7 7 6 6 5 5 4 4 5 6 5 5 4 4 4 4 3 4 4 5 4 6 8 8 6 6 6 5 6 7 8 10 13 12 12 11 9
6 7 7 7 7 6 7 8 7 6 5 4 4 4 5 6 6 5 4 4 4 4 4 4 4 4 4 5 7 8 6 7 6 6 6 8 9 11 12 11 11 11 8
7 8 8 7 6 6 7 7 6 5 4 4 5 4 5 5 5 5 4 5 5 5 5 5 4 4 4 5 6 7 6 7 7 6 5 5 11 12 11 10 9 10 9
7 8 8 6 5 5 7 7 5 3 4 5 5 4 4 4 5 6 5 5 5 6 5 5 5 3 3 4 6 8 8 8 8 6 5 6 11 12 11 9 11 13 10
6 6 7 7 4 4 5 6 4 4 5 5 5 5 4 4 4 6 6 5 5 4 4 4 4 3 3 5 8 10 10 10 7 7 11 12 13 12 10 12 13 10 7
5 5 6 6 4 3 4 4 4 4 5 5 5 5 5 4 4 4 4 4 4 4 4 5 5 4 4 4 5 6 8 10 10 9 11 13 12 10 10 9 7 5 5
4 4 5 5 4 3 4 3 3 4 5 5 4 4 4 4 4 3 3 3 2 4 5 5 5 6 5 5 8 8 7 7 8 9 7 6 5 6 6 5 5 4 5
4 4 4 4 3 3 3 3 3 4 5 4 4 3 4 4 4 4 4 7 5 6 6 6 6 4 6 10 11 11 12 13 13 9 6 6 6 6 6 6 5 4 4
Wind_Direction
193 165 169 173 172 174 175 179 176 175 170 169 179 184 199 198 200 205 203 195 192 189 183 187 182 178 180 180 165 144 138 132 126 101 58 17 5 222 230 222 218 223 224
174 170 169 170 176 179 179 178 182 182 182 184 181 180 179 190 202 208 203 197 192 190 191 185 182 180 176 169 169 158 145 148 152 140 120 27 340 309 241 216 219 226 221
189 185 179 176 174 180 184 188 187 185 185 178 160 149 137 139 183 211 210 203 196 192 191 189 185 181 179 186 187 177 163 167 177 171 151 159 219 277 330 254 228 216 212
186 184 182 181 184 188 185 182 181 180 180 174 176 178 188 195 203 200 201 198 198 194 195 190 186 182 183 189 195 186 173 160 177 186 187 171 160 164 240 350 351 194 226
181 186 189 187 183 176 178 178 176 180 179 181 185 187 197 201 193 183 184 192 195 198 198 194 187 184 188 193 193 182 181 177 178 178 169 156 129 145 162 201 320 47 357
171 172 171 162 164 163 169 171 178 188 185 186 190 194 196 192 183 184 187 193 193 197 197 194 190 188 191 195 197 193 190 191 186 186 179 173 172 183 175 187 201 188 34
168 165 167 170 173 171 171 171 179 189 188 191 197 200 199 193 191 189 191 190 191 199 203 196 192 194 198 198 191 189 195 193 191 194 200 199 196 169 166 165 173 172 128
172 171 173 174 175 175 175 176 184 189 188 192 196 196 195 192 193 188 187 194 200 204 199 196 198 199 198 199 191 192 200 195 198 201 194 198 204 187 177 170 161 162 166
176 170 166 169 172 178 183 183 181 181 189 193 187 190 195 193 191 186 185 193 200 200 197 199 199 201 198 196 190 199 202 192 199 199 193 199 204 197 196 182 173 169 185
169 167 168 169 172 177 182 175 172 178 180 179 183 192 191 190 187 182 189 197 200 197 193 198 197 199 198 195 190 195 195 186 193 192 192 203 207 196 194 191 189 181 172
174 171 172 169 162 158 163 165 166 167 171 173 174 173 179 179 176 176 186 194 199 198 200 198 195 196 196 190 185 191 187 187 191 190 188 201 195 186 190 179 178 175 157
171 167 162 159 159 163 166 169 169 166 167 164 160 166 163 164 171 178 186 187 194 200 198 188 187 196 195 187 186 190 188 188 192 193 184 194 182 173 172 162 166 162 153
165 165 165 168 171 172 171 171 171 168 158 153 152 156 163 167 176 181 182 177 180 185 186 179 185 194 193 186 187 184 184 185 187 186 182 180 165 163 153 147 144 137 130
174 177 179 176 173 172 172 170 168 163 155 152 156 165 173 178 183 175 166 167 169 172 183 183 186 186 184 181 177 172 171 169 168 168 167 164 164 166 155 146 138 130 124
181 185 183 177 170 170 173 171 169 163 155 152 160 173 167 159 153 149 153 152 152 164 165 159 163 168 174 179 169 164 161 157 149 145 149 150 150 154 151 147 143 140 135
190 185 178 175 178 179 177 172 171 167 155 156 163 158 150 146 146 143 136 129 129 129 128 140 152 157 170 157 159 156 153 151 148 142 130 124 128 128 124 127 131 138 145
189 183 182 182 182 180 173 172 168 157 155 158 158 156 153 150 151 143 129 127 128 121 116 116 124 126 128 132 136 143 144 141 142 141 136 125 117 116 115 105 99 97 106
183 180 176 171 169 164 156 150 143 147 157 161 160 157 151 150 142 133 132 127 124 123 121 116 116 116 116 122 126 122 123 124 122 128 134 130 122 120 119 109 95 83 73
173 168 164 158 156 154 151 141 141 146 155 166 170 171 161 154 151 152 144 129 122 115 112 112 118 121 119 120 125 123 118 113 106 105 112 120 118 120 119 114 108 97 83
130 137 135 132 139 144 141 139 146 150 162 168 166 161 155 155 158 155 141 126 123 121 115 104 104 115 119 118 123 124 127 123 116 104 103 112 121 124 122 124 124 119 112
116 121 120 124 131 133 133 139 144 158 160 147 143 140 147 150 148 142 134 131 126 121 114 107 95 96 111 114 117 124 132 135 128 122 115 114 119 118 117 118 124 129 126
110 117 118 114 112 124 134 138 145 145 129 129 125 123 129 137 137 137 130 127 129 129 125 118 105 92 94 103 113 116 119 127 130 131 126 122 123 120 118 114 120 120 118
104 105 113 108 96 101 129 139 140 134 131 127 128 128 124 119 130 137 139 136 133 137 136 133 129 119 99 97 103 108 112 115 116 120 123 120 118 113 109 115 121 121 121
99 104 109 111 108 98 100 112 122 130 136 139 140 140 138 130 125 132 142 149 153 156 153 152 151 144 134 130 126 121 117 112 110 112 113 108 103 101 106 113 115 116 124
90 99 112 112 104 101 99 102 116 126 128 135 139 139 140 140 129 116 111 143 153 175 170 172 165 162 165 168 152 143 139 137 132 125 115 113 116 116 116 115 112 115 121
98 100 99 101 96 94 98 107 124 133 137 142 146 148 148 146 142 133 101 64 80 98 114 127 139 135 136 137 136 134 131 130 133 126 133 137 139 140 141 141 133 127 130
Height
1516 1519 1521 1524 1527 1530 1532 1534 1537 1540 1543 1546 1549 1552 1555 1558 1560 1563 1566 1567 1570 1572 1573 1575 1577 1578 1580 1582 1583 1584 1585 1587 1588 1589 1590 1590 1591 1592 1592 1593 1594 1595 1596
1515 1517 1519 1522 1525 1527 1530 1533 1535 1537 1540 1543 1547 1550 1553 1556 1559 1561 1564 1566 1568 1570 1572 1574 1575 1577 1579 1581 1582 1583 1584 1586 1587 1588 1589 1589 1591 1590 1591 1592 1593 1594 1594
1513 1515 1518 1520 1523 1525 1527 1530 1533 1535 1538 1541 1545 1548 1551 1553 1556 1558 1560 1563 1566 1568 1570 1572 1574 1576 1578 1579 1581 1582 1583 1584 1586 1587 1588 1588 1588 1589 1590 1590 1591 1592 1593
1511 1514 1517 1519 1521 1524 1526 1529 1531 1534 1536 1539 1541 1544 1547 1549 1552 1555 1558 1560 1563 1566 1568 1570 1572 1574 1576 1577 1579 1580 1582 1583 1584 1585 1586 1588 1588 1588 1588 1589 1590 1591 1591
1509 1513 1516 1518 1521 1523 1525 1528 1530 1532 1534 1536 1539 1541 1543 1546 1549 1552 1555 1558 1561 1563 1566 1568 1570 1572 1573 1575 1577 1578 1580 1581 1582 1583 1584 1585 1586 1586 1587 1587 1588 1589 1590
1508 1511 1515 1517 1520 1522 1524 1526 1528 1530 1532 1534 1536 1538 1540 1543 1546 1549 1552 1555 1558 1560 1563 1565 1567 1569 1571 1573 1574 1576 1577 1579 1580 1581 1582 1583 1584 1584 1585 1586 1586 1587 1588
1506 1509 1513 1516 1518 1521 1523 1525 1527 1528 1530 1532 1534 1536 1538 1540 1543 1546 1549 1552 1554 1557 1560 1562 1564 1566 1568 1570 1572 1573 1574 1576 1577 1578 1579 1580 1581 1582 1583 1584 1584 1585 1586
1504 1508 1511 1514 1516 1518 1521 1523 1524 1526 1528 1530 1531 1534 1536 1538 1541 1543 1546 1549 1551 1554 1557 1559 1561 1563 1565 1567 1568 1570 1571 1573 1574 1575 1576 1577 1579 1580 1580 1581 1582 1583 1583
1503 1506 1509 1512 1515 1517 1519 1521 1522 1524 1526 1528 1529 1531 1533 1536 1538 1540 1543 1546 1548 1551 1553 1556 1558 1560 1561 1563 1565 1566 1567 1569 1570 1572 1573 1574 1575 1577 1577 1578 1579 1580 1580
1502 1505 1508 1510 1513 1515 1518 1519 1521 1523 1524 1526 1527 1529 1531 1534 1536 1538 1540 1543 1546 1548 1550 1552 1554 1556 1558 1559 1561 1562 1564 1565 1566 1568 1569 1570 1572 1573 1574 1575 1576 1577 1578
1500 1503 1506 1509 1511 1514 1516 1518 1520 1521 1522 1524 1526 1527 1529 1531 1533 1535 1538 1540 1542 1545 1546 1548 1550 1552 1554 1555 1556 1558 1560 1561 1562 1564 1565 1567 1568 1569 1570 1571 1572 1573 1574
1500 1503 1505 1508 1510 1512 1515 1517 1518 1520 1521 1523 1524 1526 1528 1530 1531 1533 1536 1538 1540 1542 1543 1545 1546 1548 1550 1551 1552 1554 1556 1557 1559 1560 1562 1563 1564 1566 1567 1568 1569 1570 1571
1499 1502 1504 1506 1509 1511 1514 1515 1517 1519 1520 1522 1523 1525 1527 1528 1530 1532 1534 1536 1538 1539 1541 1542 1543 1545 1546 1548 1549 1550 1552 1553 1555 1556 1558 1559 1560 1562 1563 1564 1566 1567 1568
1497 1500 1503 1505 1508 1510 1513 1514 1516 1518 1519 1521 1522 1524 1526 1528 1529 1531 1533 1534 1535 1537 1538 1539 1540 1542 1543 1544 1545 1547 1548 1550 1551 1553 1554 1555 1556 1558 1560 1561 1563 1564 1565
1495 1498 1501 1504 1507 1509 1512 1514 1515 1517 1519 1520 1522 1524 1525 1527 1528 1530 1531 1532 1533 1534 1536 1536 1537 1539 1540 1541 1542 1543 1545 1546 1547 1549 1550 1551 1553 1555 1556 1558 1559 1561 1562
1492 1496 1499 1502 1505 1508 1510 1513 1515 1516 1518 1520 1521 1523 1524 1526 1527 1528 1530 1531 1532 1532 1533 1534 1535 1535 1536 1538 1539 1540 1542 1543 1544 1545 1547 1548 1550 1552 1553 1555 1557 1559 1560
1490 1493 1497 1500 1503 1506 1509 1511 1513 1515 1517 1519 1520 1522 1523 1525 1526 1527 1528 1529 1530 1530 1530 1531 1532 1533 1534 1535 1536 1537 1538 1540 1541 1543 1544 1546 1548 1549 1551 1552 1554 1555 1557
1488 1491 1495 1499 1502 1505 1507 1509 1512 1514 1516 1517 1519 1520 1521 1523 1524 1525 1526 1527 1528 1528 1529 1529 1530 1531 1532 1532 1533 1535 1536 1537 1539 1541 1543 1544 1546 1547 1549 1550 1551 1553 1555
1486 1490 1493 1497 1501 1503 1506 1508 1510 1512 1514 1516 1517 1518 1520 1521 1522 1523 1524 1525 1526 1527 1527 1528 1528 1529 1530 1531 1532 1533 1534 1535 1537 1539 1541 1542 1544 1545 1547 1548 1550 1551 1553
1485 1488 1492 1496 1499 1501 1504 1506 1508 1509 1511 1513 1515 1516 1517 1519 1520 1521 1523 1524 1524 1525 1526 1526 1527 1527 1528 1529 1530 1531 1532 1533 1535 1537 1539 1541 1542 1544 1546 1547 1548 1550 1552
1484 1487 1491 1494 1497 1500 1502 1504 1506 1507 1509 1511 1512 1514 1515 1516 1518 1519 1520 1521 1522 1523 1523 1524 1525 1525 1526 1527 1528 1529 1531 1532 1533 1535 1537 1539 1541 1543 1544 1546 1547 1549 1551
1483 1487 1490 1493 1496 1499 1501 1503 1504 1506 1507 1508 1509 1511 1513 1514 1516 1517 1518 1519 1520 1521 1521 1522 1523 1524 1524 1525 1526 1528 1529 1531 1532 1534 1536 1538 1540 1542 1543 1545 1547 1548 1550
1484 1487 1490 1493 1495 1497 1499 1501 1502 1504 1505 1506 1507 1508 1510 1512 1513 1514 1515 1516 1517 1518 1519 1519 1520 1522 1523 1524 1525 1526 1528 1530 1531 1533 1535 1537 1538 1540 1543 1545 1547 1548 1550
1486 1488 1490 1492 1494 1495 1497 1499 1500 1501 1502 1503 1505 1506 1508 1509 1510 1511 1512 1513 1514 1515 1516 1517 1518 1519 1521 1522 1524 1525 1527 1529 1531 1532 1534 1536 1538 1540 1542 1544 1547 1548 1550
1486 1488 1490 1491 1493 1494 1495 1496 1497 1499 1500 1501 1503 1504 1505 1506 1507 1508 1509 1510 1512 1513 1514 1515 1516 1517 1519 1521 1523 1524 1526 1528 1530 1532 1533 1536 1538 1539 1541 1544 1546 1548 1550
1485 1487 1488 1490 1491 1493 1493 1494 1495 1496 1497 1499 1500 1501 1502 1503 1504 1505 1506 1508 1509 1511 1512 1514 1515 1516 1518 1520 1521 1523 1526 1528 1530 1532 1533 1535 1537 1539 1541 1543 1545 1548 1550